User: anonymous   Login
Location: Caltech
(34.1382°N, 118.1253°W)
Time: 06:11:51
(UTC-07:00)
Language:

Iridium 14 - Orbit

View from above orbital plane
View from above orbital plane
View from above satellite
View from above satellite

Ground track
Ground track

The orbit data is extracted from the following two-line orbital elements,

1 25777U 99032A   15090.40649839  .00000676  00000-0  23419-3 0  9990
2 25777 086.4013 201.9844 0002395 100.7871 325.8769 14.34220502838757
Epoch (UTC): 31 March 2015 09:45:21
Eccentricity: 0.0002395
inclination: 86.4013°
perigee height: 776 km
apogee height: 779 km
right ascension of ascending node: 201.9844°
argument of perigee: 100.7871°
revolutions per day: 14.34220502
mean anomaly at epoch: 325.8769°
orbit number at epoch: 83875

The dashed part of the orbit path shows where the satellite is in the earth's shadow,  

DLR